Temp
77 78 78 78 77 76 75 73 72 71 70 70 71 71 70 72 72 73 74 73 72 77 77 77 76 79 75 77 73 73 74 74 74 74 73 73 74 74 74 72 72 71 71 70 71 70 70 71 70 70 71 72 72 77 78 78 77 78 78 78 77 79
77 77 77 77 77 76 76 75 75 72 74 73 72 71 72 75 73 76 74 74 76 77 78 78 77 75 77 76 76 72 73 74 74 74 73 73 73 73 73 72 71 71 70 69 68 76 74 71 70 71 71 71 76 78 77 77 77 78 78 78 78 76
78 77 77 78 77 77 77 77 76 75 74 73 73 74 73 75 77 77 77 78 75 77 79 79 78 77 77 75 77 73 73 74 73 73 73 73 73 72 72 71 71 70 69 68 75 76 76 77 76 69 71 75 77 77 77 77 77 78 78 79 79 73
77 78 77 77 77 77 76 75 74 73 73 74 74 74 73 73 75 77 77 76 74 76 78 77 75 75 74 76 76 72 73 74 73 73 73 74 73 72 71 71 70 69 69 73 76 78 79 77 77 77 76 76 77 76 76 77 78 78 79 78 80 71
78 77 77 77 77 75 74 74 74 73 72 73 73 73 74 73 74 76 76 76 76 75 78 76 76 76 76 76 76 76 76 76 77 78 73 77 77 79 75 76 73 71 71 72 75 76 77 77 76 76 76 76 75 76 77 77 78 79 79 79 78 70
77 77 76 76 76 76 74 73 72 74 74 74 74 72 73 74 74 74 74 75 74 73 73 75 76 75 76 75 75 75 76 76 76 77 77 77 77 77 76 75 73 72 71 72 73 75 77 77 77 76 77 75 76 75 77 78 79 78 79 79 77 70
75 75 75 77 76 76 74 73 73 73 74 73 74 73 73 74 74 74 74 72 71 71 72 74 74 75 75 75 75 75 75 76 76 77 77 77 76 76 76 75 74 72 72 73 74 76 76 77 76 77 77 77 76 77 76 78 79 78 79 78 76 69
74 74 74 76 75 73 73 72 72 74 74 74 74 74 73 74 74 73 74 73 73 72 71 72 74 74 74 74 73 75 75 74 77 76 77 76 75 76 75 75 73 71 73 74 75 76 77 78 77 76 77 77 76 76 76 78 79 78 79 78 78 73
74 74 74 74 73 72 72 73 74 74 73 73 73 73 74 73 73 73 73 74 74 71 72 73 72 73 73 72 72 72 70 70 73 75 74 74 74 73 73 74 73 73 74 74 74 74 76 78 77 77 77 78 78 77 76 76 78 78 79 79 78 77
73 73 72 72 71 71 72 71 72 72 74 74 72 72 72 72 72 72 72 74 74 73 73 72 72 72 72 70 71 71 71 71 69 70 70 73 73 73 72 72 72 73 75 74 75 74 75 77 78 77 78 78 78 79 78 78 78 79 80 78 77 78
72 71 71 71 70 71 71 71 71 71 73 73 72 71 70 70 71 72 73 73 73 72 69 68 68 68 68 64 66 67 69 70 68 69 70 74 74 72 72 73 73 74 73 72 74 74 75 76 77 79 78 79 79 79 79 79 79 79 80 79 79 78
70 70 70 71 70 71 71 72 72 72 72 73 71 70 70 70 70 70 68 68 69 68 67 67 67 66 65 66 66 66 66 67 68 68 69 71 72 71 72 72 74 73 71 71 72 73 74 75 76 79 79 79 80 79 80 79 80 79 79 79 79 78
69 69 70 70 70 71 72 74 72 73 73 71 70 69 69 70 69 69 69 69 67 69 68 68 67 67 65 65 66 67 67 68 69 67 68 69 71 72 72 72 72 73 72 72 72 72 73 73 74 76 77 79 79 80 81 81 79 79 79 79 79 79
68 69 68 69 70 72 71 71 73 73 73 72 70 70 70 70 69 69 69 68 69 69 67 68 69 68 67 66 67 68 66 66 67 68 67 67 69 70 72 73 74 74 73 73 72 70 72 73 75 76 77 78 79 78 79 81 80 79 78 79 80 78
67 68 67 69 70 71 70 72 73 73 72 72 71 72 72 72 72 73 72 69 70 69 69 68 69 69 70 70 70 68 67 67 68 68 67 67 68 69 71 71 72 73 72 72 72 73 71 72 73 73 74 75 78 81 78 78 79 79 79 78 77 79
68 69 69 69 69 70 70 70 72 71 72 71 72 73 73 73 75 74 74 73 72 72 70 70 70 70 67 68 67 67 66 68 68 66 66 66 68 68 70 71 70 70 69 72 73 72 72 72 72 73 73 74 75 76 78 79 78 79 80 79 80 78
69 70 69 68 68 68 69 69 70 69 69 70 71 71 73 73 74 74 74 74 72 72 72 71 71 71 68 67 66 68 68 68 69 68 67 66 67 69 70 70 69 69 69 68 70 72 73 73 72 72 73 74 75 74 76 78 79 78 79 76 78 79
69 69 68 68 68 68 69 69 69 70 69 70 70 72 73 74 73 74 73 72 71 72 71 71 71 70 68 68 68 68 69 69 68 67 69 68 68 68 68 68 68 68 69 68 66 68 69 72 73 73 73 74 74 75 75 76 78 77 78 79 78 78
67 67 67 67 67 67 67 68 68 69 69 69 70 71 72 73 72 72 71 70 70 69 69 70 70 71 70 68 68 68 68 69 69 68 68 68 69 68 68 68 67 67 68 69 67 66 67 67 69 72 72 74 74 73 74 75 76 77 79 79 81 79
67 67 67 67 69 70 70 70 69 69 69 69 70 71 71 72 71 71 71 71 71 70 72 71 71 70 70 70 69 68 69 69 69 69 69 68 67 68 67 67 65 66 66 66 67 67 65 64 64 65 67 70 72 71 73 73 74 76 78 78 78 79
66 67 69 69 69 70 69 68 69 69 68 68 70 69 69 70 70 70 70 72 71 72 71 71 71 70 69 69 70 69 69 69 70 69 68 67 67 68 68 68 65 65 65 65 66 66 65 64 63 62 64 69 70 73 72 71 73 74 76 78 78 77
66 67 69 69 69 69 70 72 71 70 69 69 70 70 69 69 68 68 69 69 70 71 71 71 70 70 70 70 70 69 69 69 70 69 68 68 67 67 68 67 66 64 65 64 65 67 65 63 60 60 59 61 67 72 71 70 73 76 76 77 77 76
66 67 68 68 69 69 68 67 70 68 70 68 67 67 70 69 69 70 67 69 69 69 70 71 70 71 70 70 70 69 69 69 70 70 69 68 67 66 67 66 66 65 63 65 64 65 65 64 61 61 61 60 59 60 66 71 72 73 75 76 77 78
66 67 67 67 68 67 66 65 66 67 67 69 68 66 67 67 68 69 68 68 69 68 69 70 71 72 70 70 69 69 69 69 68 69 69 67 67 67 67 66 65 65 66 62 63 63 66 66 64 62 58 59 59 59 56 62 65 70 73 74 74 76
66 66 67 67 67 67 67 66 66 66 68 66 67 68 68 67 68 68 68 68 67 68 69 69 69 70 71 69 69 69 69 68 68 68 69 68 67 66 68 68 67 66 65 64 63 63 63 64 65 65 62 59 57 57 58 60 62 67 71 73 73 75
67 67 67 67 67 68 69 67 66 66 65 66 65 65 65 65 66 67 67 67 68 69 69 68 69 70 70 69 68 68 68 69 68 68 68 68 68 67 66 66 66 66 65 65 64 63 61 63 63 63 64 64 62 59 59 61 61 59 68 70 71 74
67 67 67 66 67 69 68 68 67 68 68 67 66 66 67 67 68 67 67 67 67 67 69 68 68 69 69 69 68 68 68 68 68 67 67 67 66 66 66 65 67 67 65 65 65 63 62 62 64 63 64 64 64 63 63 61 58 60 59 64 69 69
67 67 66 66 67 69 68 68 67 67 67 67 68 67 65 66 66 67 67 66 67 67 68 69 68 68 69 68 68 67 67 67 67 68 68 67 66 66 66 66 65 65 65 65 64 62 62 63 62 62 63 64 64 65 65 65 65 60 59 58 61 67
66 67 66 65 66 68 69 68 67 67 66 67 66 67 67 67 66 66 66 66 67 67 67 67 69 68 68 68 68 67 67 67 66 67 68 67 66 66 65 64 64 64 63 63 63 62 62 62 62 60 62 63 64 64 66 65 66 65 61 59 60 61
66 67 66 65 66 66 68 68 67 66 66 65 65 65 67 66 65 65 66 65 66 67 67 67 66 68 67 68 67 68 67 66 65 66 66 66 65 64 63 63 63 63 63 62 62 62 61 61 62 62 62 62 62 62 64 64 64 64 64 63 58 59
66 67 66 65 66 66 66 67 68 67 66 66 64 65 65 64 65 65 65 65 66 67 67 67 66 66 66 67 66 67 66 66 66 66 66 66 65 65 64 63 63 63 62 62 62 61 60 60 61 61 61 62 61 59 58 58 59 61 61 61 61 62
66 66 65 65 65 65 66 66 67 67 67 67 65 65 66 65 65 65 65 65 66 66 66 66 66 66 65 66 66 66 65 65 65 65 65 65 65 65 65 65 64 63 62 62 62 61 61 59 59 60 60 61 61 61 60 59 59 60 60 60 58 58
65 66 65 65 64 65 65 65 66 66 67 67 66 66 67 67 66 66 66 65 65 66 66 65 65 65 65 65 66 65 65 65 65 65 65 65 64 65 65 64 64 63 62 62 62 61 60 59 59 59 59 60 61 62 61 61 60 59 60 60 59 58
66 65 65 65 65 65 65 65 66 66 66 67 66 66 67 68 66 68 67 66 66 66 66 66 66 66 66 66 67 66 66 66 66 65 65 64 64 65 64 65 64 63 62 62 62 61 61 60 60 59 61 60 60 61 61 61 60 60 59 58 58 57
65 65 65 64 64 65 65 65 65 66 66 67 67 67 67 68 67 66 66 66 66 67 67 68 67 67 66 66 66 66 65 65 65 65 65 64 64 64 64 65 64 62 63 63 62 62 61 60 59 59 59 60 60 60 61 62 62 61 60 58 58 58
65 65 65 64 64 65 65 66 65 64 65 65 67 67 67 67 67 66 66 66 66 66 67 67 67 67 65 66 65 65 65 65 65 65 65 64 64 65 64 64 64 63 62 63 61 61 61 61 59 59 59 59 60 60 60 61 62 61 61 60 59 59
64 65 65 65 65 65 65 65 64 64 65 64 65 65 66 65 65 65 66 66 67 66 66 66 65 65 65 66 66 65 65 64 64 64 64 64 64 65 64 64 63 62 62 63 62 61 61 61 61 61 60 59 59 60 60 60 61 61 60 60 61 60
MSLP
1015.66 1015.62 1015.62 1015.66 1015.91 1016.03 1016.27 1016.59 1016.86 1017.07 1016.91 1017.10 1017.22 1017.59 1017.86 1017.62 1017.47 1017.51 1017.59 1017.71 1017.74 1017.78 1017.83 1017.91 1018.03 1018.03 1018.30 1018.22 1018.39 1018.47 1018.59 1018.66 1018.74 1018.83 1018.91 1019.07 1019.15 1019.27 1019.42 1019.59 1019.74 1019.83 1019.91 1020.07 1020.18 1020.27 1020.27 1020.18 1020.07 1020.03 1020.03 1020.10 1020.22 1020.27 1020.22 1020.34 1020.47 1020.54 1020.54 1020.62 1020.74 1020.66
1015.83 1015.74 1015.74 1015.78 1015.83 1016.03 1016.22 1016.47 1016.59 1016.95 1017.03 1017.15 1017.30 1017.66 1017.74 1017.51 1017.47 1017.39 1017.54 1017.62 1017.66 1017.78 1017.83 1017.91 1017.98 1018.18 1018.22 1018.34 1018.39 1018.59 1018.66 1018.71 1018.83 1018.95 1019.03 1019.15 1019.30 1019.34 1019.47 1019.66 1019.83 1019.98 1020.03 1020.10 1020.27 1020.15 1020.22 1020.34 1020.27 1020.10 1020.10 1020.22 1020.22 1020.15 1020.30 1020.39 1020.51 1020.51 1020.59 1020.59 1020.66 1020.83
1015.78 1015.86 1015.86 1015.83 1015.91 1016.03 1016.22 1016.30 1016.51 1016.78 1016.98 1017.22 1017.30 1017.42 1017.47 1017.34 1017.30 1017.39 1017.47 1017.59 1017.74 1017.74 1017.74 1017.86 1017.95 1018.10 1018.10 1018.27 1018.42 1018.66 1018.74 1018.78 1018.86 1018.98 1019.10 1019.18 1019.39 1019.54 1019.59 1019.74 1019.91 1020.07 1020.22 1020.27 1020.15 1020.18 1020.22 1020.22 1020.22 1020.30 1020.27 1020.22 1020.22 1020.27 1020.34 1020.47 1020.54 1020.51 1020.59 1020.54 1020.62 1020.95
1015.91 1015.86 1015.95 1015.95 1015.98 1016.03 1016.22 1016.42 1016.62 1016.83 1016.91 1016.98 1017.10 1017.22 1017.42 1017.42 1017.39 1017.42 1017.51 1017.62 1017.78 1017.78 1017.78 1017.98 1018.10 1018.22 1018.42 1018.51 1018.62 1018.86 1018.98 1019.03 1019.07 1019.15 1019.22 1019.30 1019.42 1019.62 1019.74 1019.83 1019.95 1020.18 1020.30 1020.27 1020.10 1020.10 1020.15 1020.27 1020.27 1020.18 1020.22 1020.22 1020.27 1020.39 1020.47 1020.54 1020.54 1020.54 1020.51 1020.62 1020.59 1021.03
1015.91 1015.95 1016.03 1016.07 1016.15 1016.30 1016.39 1016.54 1016.71 1016.91 1017.03 1017.07 1017.15 1017.22 1017.30 1017.42 1017.42 1017.47 1017.54 1017.59 1017.71 1017.83 1017.86 1018.07 1018.15 1018.27 1018.39 1018.51 1018.71 1018.91 1019.07 1019.07 1019.10 1019.10 1019.27 1019.27 1019.30 1019.42 1019.66 1019.74 1019.98 1020.22 1020.34 1020.42 1020.34 1020.22 1020.22 1020.27 1020.34 1020.30 1020.34 1020.30 1020.39 1020.42 1020.47 1020.54 1020.59 1020.54 1020.51 1020.54 1020.71 1021.10
1015.95 1015.98 1016.07 1016.10 1016.22 1016.27 1016.42 1016.71 1016.78 1016.78 1016.91 1017.07 1017.10 1017.30 1017.30 1017.34 1017.34 1017.51 1017.62 1017.66 1017.78 1018.03 1018.15 1018.18 1018.18 1018.34 1018.47 1018.62 1018.83 1018.95 1018.98 1019.03 1019.15 1019.15 1019.15 1019.30 1019.34 1019.51 1019.66 1019.83 1020.07 1020.22 1020.39 1020.42 1020.42 1020.30 1020.22 1020.27 1020.30 1020.34 1020.34 1020.39 1020.42 1020.51 1020.51 1020.47 1020.51 1020.59 1020.54 1020.59 1020.74 1021.10
1016.03 1016.03 1016.15 1016.10 1016.18 1016.22 1016.47 1016.62 1016.71 1016.74 1016.95 1017.10 1017.10 1017.30 1017.42 1017.39 1017.39 1017.51 1017.62 1017.74 1017.98 1018.15 1018.27 1018.27 1018.34 1018.42 1018.59 1018.66 1018.83 1018.83 1018.91 1018.95 1019.10 1019.18 1019.18 1019.30 1019.47 1019.51 1019.62 1019.78 1020.03 1020.27 1020.30 1020.34 1020.39 1020.34 1020.27 1020.27 1020.30 1020.30 1020.34 1020.39 1020.42 1020.42 1020.54 1020.51 1020.47 1020.54 1020.54 1020.62 1020.74 1021.15
1016.03 1016.07 1016.18 1016.18 1016.30 1016.47 1016.59 1016.71 1016.78 1016.74 1016.86 1017.03 1017.15 1017.27 1017.39 1017.39 1017.42 1017.59 1017.62 1017.74 1017.91 1018.15 1018.34 1018.42 1018.42 1018.54 1018.66 1018.83 1018.95 1018.83 1018.83 1018.95 1018.95 1019.07 1019.10 1019.27 1019.51 1019.59 1019.66 1019.74 1019.98 1020.30 1020.30 1020.22 1020.30 1020.34 1020.22 1020.18 1020.30 1020.30 1020.34 1020.39 1020.47 1020.51 1020.54 1020.47 1020.42 1020.47 1020.51 1020.59 1020.66 1021.03
1015.95 1016.07 1016.15 1016.22 1016.51 1016.54 1016.62 1016.66 1016.62 1016.78 1016.98 1017.07 1017.18 1017.22 1017.27 1017.39 1017.54 1017.59 1017.62 1017.71 1017.86 1018.18 1018.30 1018.42 1018.54 1018.66 1018.74 1018.95 1018.86 1018.78 1018.98 1019.27 1019.18 1019.10 1019.10 1019.27 1019.34 1019.59 1019.71 1019.74 1019.91 1020.07 1020.07 1020.18 1020.27 1020.34 1020.30 1020.22 1020.22 1020.27 1020.30 1020.30 1020.34 1020.42 1020.54 1020.54 1020.51 1020.51 1020.47 1020.51 1020.62 1020.74
1015.91 1015.98 1016.15 1016.30 1016.47 1016.59 1016.66 1016.83 1016.78 1016.91 1016.91 1016.98 1017.22 1017.30 1017.34 1017.47 1017.51 1017.59 1017.71 1017.71 1017.78 1017.98 1018.22 1018.39 1018.54 1018.66 1018.86 1019.07 1018.71 1018.74 1018.95 1019.10 1019.27 1018.98 1018.98 1019.10 1019.18 1019.39 1019.62 1019.71 1019.83 1019.86 1019.98 1020.18 1020.18 1020.30 1020.30 1020.22 1020.18 1020.22 1020.22 1020.27 1020.27 1020.22 1020.34 1020.47 1020.51 1020.47 1020.39 1020.47 1020.59 1020.66
1016.03 1016.07 1016.22 1016.42 1016.51 1016.59 1016.66 1016.78 1016.91 1016.95 1016.98 1017.07 1017.18 1017.34 1017.51 1017.59 1017.59 1017.59 1017.71 1017.78 1017.91 1018.03 1018.27 1018.51 1018.91 1019.10 1019.18 1019.27 1018.66 1019.27 1019.27 1019.27 1019.27 1019.22 1019.22 1019.15 1019.27 1019.51 1019.62 1019.71 1019.71 1019.71 1019.91 1020.18 1020.18 1020.18 1020.27 1020.27 1020.18 1020.10 1020.15 1020.22 1020.22 1020.18 1020.22 1020.30 1020.34 1020.39 1020.39 1020.39 1020.42 1020.54
1016.18 1016.22 1016.39 1016.47 1016.54 1016.62 1016.71 1016.71 1016.83 1016.86 1016.98 1017.07 1017.30 1017.51 1017.59 1017.62 1017.66 1017.83 1017.95 1018.07 1018.15 1018.30 1018.51 1018.78 1018.98 1019.42 1019.66 1019.27 1019.22 1019.47 1019.59 1019.47 1019.39 1019.54 1019.42 1019.47 1019.51 1019.62 1019.71 1019.74 1019.71 1019.78 1019.98 1020.15 1020.22 1020.18 1020.22 1020.27 1020.22 1020.03 1019.98 1020.15 1020.10 1020.18 1020.15 1020.22 1020.27 1020.30 1020.34 1020.34 1020.39 1020.47
1016.22 1016.30 1016.47 1016.59 1016.66 1016.62 1016.62 1016.62 1016.83 1016.83 1016.95 1017.27 1017.42 1017.66 1017.78 1017.71 1017.83 1017.91 1017.95 1018.10 1018.30 1018.34 1018.47 1018.74 1019.10 1019.30 1019.59 1019.34 1018.83 1019.15 1019.47 1019.42 1019.34 1019.39 1019.27 1019.30 1019.42 1019.54 1019.62 1019.71 1019.83 1019.78 1019.98 1020.07 1020.18 1020.15 1020.15 1020.18 1020.22 1020.10 1020.03 1019.95 1020.03 1020.07 1019.98 1020.07 1020.18 1020.27 1020.30 1020.30 1020.34 1020.39
1016.34 1016.47 1016.62 1016.71 1016.71 1016.62 1016.78 1016.86 1016.86 1016.95 1017.07 1017.27 1017.47 1017.66 1017.71 1017.71 1017.78 1017.86 1017.95 1018.22 1018.27 1018.34 1018.54 1018.62 1018.78 1018.98 1019.10 1018.95 1018.78 1019.27 1019.59 1019.47 1019.18 1019.34 1019.51 1019.51 1019.54 1019.51 1019.51 1019.54 1019.59 1019.66 1019.83 1019.95 1020.03 1020.15 1020.15 1020.18 1020.10 1019.98 1019.95 1019.86 1019.86 1019.91 1019.95 1019.95 1019.98 1020.10 1020.18 1020.22 1020.15 1020.30
1016.47 1016.54 1016.71 1016.74 1016.78 1016.78 1016.95 1016.98 1017.07 1017.10 1017.27 1017.34 1017.47 1017.51 1017.59 1017.59 1017.62 1017.59 1017.74 1018.18 1018.30 1018.30 1018.42 1018.42 1018.78 1018.78 1018.83 1018.86 1018.86 1018.91 1018.98 1018.86 1018.86 1019.34 1019.54 1019.47 1019.22 1019.10 1019.10 1019.22 1019.27 1019.42 1019.62 1019.78 1019.91 1019.95 1020.07 1020.18 1020.22 1020.18 1020.10 1019.95 1019.86 1019.62 1019.78 1019.86 1019.86 1019.98 1019.98 1020.07 1020.18 1020.18
1016.42 1016.59 1016.66 1016.83 1016.86 1016.91 1017.07 1017.15 1017.18 1017.34 1017.39 1017.51 1017.51 1017.54 1017.59 1017.54 1017.51 1017.59 1017.74 1017.98 1018.10 1018.10 1018.27 1018.34 1018.62 1018.66 1018.86 1018.95 1018.98 1018.86 1018.74 1018.86 1018.91 1019.18 1019.22 1018.86 1018.91 1019.15 1019.18 1019.22 1019.27 1019.34 1019.59 1019.62 1019.62 1019.78 1019.86 1020.07 1020.07 1020.10 1019.98 1019.98 1019.86 1019.83 1019.66 1019.59 1019.71 1019.74 1019.71 1019.86 1019.95 1020.07
1016.42 1016.51 1016.74 1016.91 1016.98 1017.10 1017.22 1017.39 1017.42 1017.51 1017.54 1017.59 1017.59 1017.62 1017.62 1017.59 1017.62 1017.66 1017.74 1017.91 1018.07 1018.10 1018.18 1018.27 1018.39 1018.54 1018.74 1018.91 1018.91 1018.83 1018.71 1018.83 1018.86 1018.91 1018.98 1018.98 1019.30 1019.30 1019.22 1019.22 1019.27 1019.30 1019.39 1019.66 1019.66 1019.71 1019.59 1019.74 1019.98 1019.95 1019.83 1019.83 1019.78 1019.83 1019.66 1019.34 1019.34 1019.47 1019.59 1019.91 1019.91 1019.91
1016.51 1016.59 1016.74 1016.95 1017.07 1017.10 1017.27 1017.42 1017.51 1017.59 1017.66 1017.66 1017.74 1017.66 1017.66 1017.66 1017.78 1017.78 1017.86 1017.98 1018.10 1018.10 1018.18 1018.27 1018.39 1018.51 1018.66 1018.74 1018.83 1018.83 1018.71 1018.74 1018.83 1018.86 1018.83 1018.83 1018.91 1018.95 1018.95 1018.95 1019.18 1019.27 1019.34 1019.59 1019.83 1019.86 1019.83 1019.71 1019.78 1019.86 1019.83 1019.74 1019.66 1019.62 1019.54 1019.39 1019.18 1019.30 1019.42 1019.59 1019.66 1019.74
1016.71 1016.83 1016.95 1017.03 1017.15 1017.22 1017.34 1017.47 1017.59 1017.62 1017.74 1017.78 1017.74 1017.78 1017.74 1017.83 1017.95 1017.95 1018.03 1018.15 1018.18 1018.22 1018.34 1018.42 1018.51 1018.54 1018.59 1018.74 1018.83 1018.83 1018.78 1018.78 1018.71 1018.71 1018.78 1018.83 1018.83 1018.91 1019.07 1019.18 1019.42 1019.51 1019.39 1019.39 1019.59 1019.74 1019.86 1019.91 1019.98 1019.95 1019.91 1019.71 1019.62 1019.62 1019.54 1019.39 1019.34 1019.22 1019.18 1019.22 1019.27 1019.42
1016.83 1016.91 1016.95 1017.03 1017.07 1017.18 1017.30 1017.42 1017.66 1017.71 1017.83 1017.86 1017.83 1017.86 1017.91 1017.98 1018.07 1018.10 1018.15 1018.15 1018.22 1018.27 1018.30 1018.42 1018.51 1018.62 1018.66 1018.71 1018.78 1018.83 1018.78 1018.71 1018.71 1018.66 1018.66 1018.78 1018.86 1018.95 1019.10 1019.22 1019.42 1019.34 1019.34 1019.42 1019.51 1019.71 1019.86 1020.07 1020.15 1020.27 1020.18 1019.86 1019.66 1019.66 1019.54 1019.42 1019.42 1019.27 1019.07 1019.07 1019.18 1019.22
1016.86 1016.91 1016.86 1016.98 1017.07 1017.15 1017.42 1017.71 1017.74 1017.78 1017.95 1018.03 1017.95 1018.03 1018.15 1018.18 1018.22 1018.27 1018.27 1018.22 1018.27 1018.30 1018.42 1018.51 1018.59 1018.62 1018.71 1018.74 1018.74 1018.74 1018.66 1018.66 1018.62 1018.71 1018.78 1018.86 1018.91 1018.78 1018.83 1018.95 1019.15 1019.27 1019.39 1019.51 1019.62 1019.59 1019.78 1019.83 1020.15 1020.27 1020.07 1019.95 1019.66 1019.39 1019.39 1019.51 1019.39 1019.27 1019.15 1018.98 1018.95 1019.15
1016.86 1016.91 1016.83 1016.78 1016.95 1017.15 1017.18 1017.18 1017.42 1017.71 1017.86 1017.98 1018.03 1018.07 1018.27 1018.34 1018.47 1018.47 1018.42 1018.42 1018.47 1018.47 1018.51 1018.59 1018.62 1018.66 1018.66 1018.66 1018.78 1018.83 1018.86 1018.83 1018.71 1018.74 1018.91 1018.91 1018.98 1018.98 1019.03 1019.10 1019.18 1019.39 1019.39 1019.47 1019.62 1019.51 1019.71 1019.91 1020.34 1020.34 1020.71 1020.51 1019.95 1019.30 1019.27 1019.42 1019.34 1019.07 1018.98 1018.91 1018.91 1019.03
1016.83 1016.86 1016.86 1016.91 1016.95 1017.15 1017.34 1017.42 1017.42 1017.78 1017.78 1018.10 1018.27 1018.30 1018.22 1018.42 1018.47 1018.54 1018.66 1018.62 1018.62 1018.62 1018.66 1018.66 1018.71 1018.66 1018.71 1018.74 1018.78 1018.86 1018.91 1018.86 1018.83 1018.83 1018.95 1019.10 1019.15 1019.18 1019.07 1019.27 1019.30 1019.42 1019.66 1019.54 1019.71 1019.62 1019.62 1019.62 1020.10 1020.22 1020.39 1020.54 1020.66 1020.62 1019.86 1019.42 1019.27 1019.10 1018.98 1018.86 1018.83 1018.91
1016.74 1016.86 1016.91 1016.95 1016.98 1017.15 1017.39 1017.54 1017.62 1017.78 1017.95 1017.95 1018.18 1018.47 1018.54 1018.59 1018.62 1018.66 1018.78 1018.78 1018.74 1018.78 1018.83 1018.83 1018.78 1018.74 1018.83 1018.91 1018.91 1018.98 1018.98 1018.98 1019.07 1019.03 1019.10 1019.30 1019.42 1019.39 1019.30 1019.22 1019.30 1019.39 1019.34 1019.86 1019.86 1019.91 1019.59 1019.54 1019.66 1020.10 1020.78 1020.66 1020.66 1020.54 1021.18 1020.30 1019.98 1019.30 1019.03 1019.03 1019.07 1018.98
1016.47 1016.71 1016.78 1016.91 1016.98 1017.18 1017.42 1017.66 1017.86 1018.03 1018.07 1018.27 1018.34 1018.47 1018.54 1018.71 1018.74 1018.78 1018.86 1018.91 1019.03 1018.95 1018.95 1018.98 1018.98 1018.98 1018.98 1019.15 1019.15 1019.15 1019.18 1019.22 1019.27 1019.27 1019.22 1019.42 1019.54 1019.59 1019.51 1019.47 1019.42 1019.42 1019.47 1019.54 1019.71 1019.78 1019.86 1019.71 1019.66 1019.62 1020.03 1020.71 1020.91 1021.03 1020.71 1020.51 1020.39 1019.71 1019.22 1019.18 1019.10 1018.95
1016.30 1016.59 1016.74 1016.86 1016.98 1016.98 1017.18 1017.51 1017.86 1018.15 1018.39 1018.42 1018.59 1018.66 1018.71 1018.78 1018.86 1018.86 1018.95 1019.10 1019.07 1019.07 1019.07 1019.15 1019.18 1019.15 1019.18 1019.22 1019.34 1019.34 1019.34 1019.34 1019.47 1019.51 1019.51 1019.59 1019.62 1019.66 1019.74 1019.71 1019.71 1019.62 1019.62 1019.62 1019.66 1019.98 1020.22 1020.07 1019.91 1019.91 1019.86 1019.95 1020.10 1020.51 1020.71 1020.39 1020.34 1020.51 1019.39 1019.22 1019.22 1019.03
1016.22 1016.47 1016.66 1016.83 1016.91 1016.86 1017.15 1017.34 1017.59 1017.78 1017.91 1018.07 1018.27 1018.39 1018.42 1018.51 1018.59 1018.83 1018.95 1019.07 1019.15 1019.18 1019.15 1019.27 1019.34 1019.34 1019.39 1019.42 1019.42 1019.47 1019.51 1019.54 1019.62 1019.71 1019.74 1019.78 1019.86 1019.91 1019.95 1020.03 1019.86 1019.78 1019.86 1019.86 1019.78 1020.07 1020.30 1020.27 1020.03 1020.07 1020.07 1020.03 1019.98 1019.98 1020.07 1020.39 1020.59 1020.30 1020.47 1019.78 1019.30 1019.30
1016.18 1016.30 1016.51 1016.74 1016.83 1016.71 1016.86 1017.18 1017.54 1017.86 1017.98 1018.07 1018.03 1018.15 1018.54 1018.66 1018.66 1018.78 1018.91 1019.10 1019.15 1019.27 1019.30 1019.30 1019.42 1019.51 1019.51 1019.54 1019.59 1019.66 1019.71 1019.74 1019.83 1019.86 1019.86 1020.03 1020.15 1020.15 1020.15 1020.18 1020.18 1020.15 1020.15 1020.10 1020.15 1020.30 1020.47 1020.42 1020.39 1020.54 1020.47 1020.34 1020.15 1020.07 1019.98 1019.98 1019.98 1020.22 1020.30 1020.54 1020.03 1019.34
1016.18 1016.27 1016.42 1016.66 1016.74 1016.71 1016.66 1016.95 1017.30 1017.62 1018.03 1018.03 1018.10 1018.22 1018.42 1018.62 1018.78 1018.83 1018.95 1019.10 1019.15 1019.27 1019.39 1019.42 1019.42 1019.54 1019.62 1019.62 1019.71 1019.78 1019.83 1019.91 1019.98 1020.07 1020.07 1020.22 1020.34 1020.39 1020.42 1020.42 1020.42 1020.42 1020.47 1020.54 1020.54 1020.62 1020.59 1020.66 1020.71 1020.86 1020.59 1020.47 1020.34 1020.34 1020.03 1020.07 1020.03 1019.98 1020.30 1020.51 1020.18 1020.15
1016.10 1016.15 1016.27 1016.59 1016.66 1016.71 1016.71 1016.86 1017.18 1017.47 1017.74 1018.03 1018.22 1018.34 1018.42 1018.71 1018.86 1018.95 1018.98 1019.15 1019.18 1019.27 1019.34 1019.47 1019.59 1019.62 1019.71 1019.74 1019.78 1019.83 1019.91 1020.03 1020.15 1020.22 1020.27 1020.42 1020.59 1020.66 1020.71 1020.71 1020.71 1020.71 1020.74 1020.83 1020.95 1020.95 1020.98 1020.98 1020.91 1020.95 1020.86 1020.78 1020.71 1020.59 1020.34 1020.22 1020.27 1020.34 1020.15 1020.22 1020.71 1020.62
1015.83 1015.98 1016.18 1016.42 1016.54 1016.71 1016.74 1016.83 1016.95 1017.22 1017.54 1017.91 1018.18 1018.30 1018.47 1018.74 1018.86 1018.98 1018.98 1019.10 1019.10 1019.15 1019.22 1019.39 1019.51 1019.66 1019.74 1019.83 1019.91 1019.95 1020.03 1020.10 1020.18 1020.30 1020.39 1020.47 1020.59 1020.66 1020.78 1020.86 1020.95 1020.95 1020.98 1021.03 1021.10 1021.18 1021.22 1021.22 1021.15 1021.18 1021.15 1021.03 1021.03 1021.18 1021.22 1021.10 1021.03 1020.74 1020.83 1020.62 1020.51 1020.34
1015.71 1015.83 1016.10 1016.30 1016.47 1016.59 1016.71 1016.78 1016.78 1016.98 1017.27 1017.51 1017.86 1018.15 1018.18 1018.39 1018.66 1018.78 1018.86 1019.03 1019.07 1019.18 1019.27 1019.39 1019.51 1019.59 1019.74 1019.83 1019.91 1020.03 1020.15 1020.18 1020.27 1020.34 1020.47 1020.54 1020.62 1020.71 1020.78 1020.86 1020.91 1020.98 1021.10 1021.18 1021.22 1021.27 1021.34 1021.47 1021.42 1021.34 1021.51 1021.39 1021.34 1021.30 1021.34 1021.51 1021.42 1021.27 1021.15 1020.98 1021.07 1020.95
1015.39 1015.59 1015.86 1016.10 1016.30 1016.42 1016.62 1016.66 1016.74 1016.91 1017.03 1017.27 1017.59 1017.74 1017.86 1018.03 1018.22 1018.47 1018.66 1018.91 1019.10 1019.10 1019.18 1019.34 1019.42 1019.51 1019.62 1019.78 1019.83 1020.07 1020.15 1020.18 1020.30 1020.39 1020.51 1020.59 1020.74 1020.78 1020.83 1020.86 1020.98 1021.07 1021.15 1021.22 1021.30 1021.34 1021.47 1021.62 1021.62 1021.62 1021.62 1021.62 1021.51 1021.42 1021.51 1021.62 1021.66 1021.62 1021.34 1021.27 1021.22 1021.10
1015.10 1015.39 1015.71 1016.03 1016.18 1016.34 1016.42 1016.47 1016.62 1016.78 1016.86 1017.03 1017.39 1017.59 1017.66 1017.78 1018.03 1018.10 1018.34 1018.62 1018.78 1018.83 1018.95 1018.98 1019.18 1019.30 1019.42 1019.59 1019.71 1019.83 1019.98 1020.15 1020.22 1020.39 1020.51 1020.62 1020.74 1020.78 1020.83 1020.83 1020.98 1021.10 1021.27 1021.30 1021.39 1021.47 1021.54 1021.66 1021.74 1021.78 1021.71 1021.66 1021.66 1021.62 1021.62 1021.66 1021.71 1021.66 1021.66 1021.54 1021.27 1021.30
1015.30 1015.42 1015.71 1015.91 1016.10 1016.22 1016.30 1016.42 1016.51 1016.62 1016.83 1016.91 1017.03 1017.27 1017.42 1017.51 1017.74 1017.98 1018.15 1018.34 1018.51 1018.59 1018.71 1018.78 1018.95 1019.07 1019.34 1019.51 1019.62 1019.78 1019.95 1020.15 1020.30 1020.39 1020.51 1020.62 1020.71 1020.78 1020.86 1020.83 1020.98 1021.18 1021.22 1021.30 1021.39 1021.47 1021.59 1021.66 1021.78 1021.83 1021.86 1021.78 1021.78 1021.74 1021.74 1021.62 1021.59 1021.59 1021.62 1021.78 1021.74 1021.59
1015.10 1015.22 1015.51 1015.74 1015.91 1016.03 1016.15 1016.22 1016.42 1016.62 1016.74 1016.86 1016.91 1016.98 1017.15 1017.42 1017.62 1017.74 1017.91 1018.07 1018.27 1018.47 1018.47 1018.62 1018.83 1019.03 1019.30 1019.42 1019.62 1019.78 1019.95 1020.10 1020.22 1020.39 1020.51 1020.59 1020.66 1020.71 1020.83 1020.83 1020.95 1021.07 1021.27 1021.34 1021.39 1021.51 1021.54 1021.66 1021.78 1021.86 1021.91 1021.91 1021.78 1021.86 1021.86 1021.83 1021.71 1021.74 1021.66 1021.71 1021.66 1021.59
1015.10 1015.15 1015.30 1015.47 1015.66 1015.86 1016.03 1016.18 1016.30 1016.42 1016.62 1016.83 1016.98 1017.03 1017.03 1017.22 1017.47 1017.66 1017.83 1017.91 1017.98 1018.22 1018.39 1018.59 1018.78 1018.98 1019.18 1019.34 1019.51 1019.66 1019.86 1020.07 1020.22 1020.34 1020.51 1020.59 1020.62 1020.66 1020.74 1020.83 1020.95 1021.07 1021.18 1021.27 1021.30 1021.42 1021.51 1021.54 1021.71 1021.74 1021.83 1021.98 1021.91 1021.91 1021.95 1021.98 1021.91 1021.86 1021.83 1021.74 1021.59 1021.54
Wind_Speed
6 6 7 6 7 7 9 12 8 10 10 7 5 4 2 3 4 5 8 7 5 6 7 6 8 7 10 8 8 7 9 9 7 6 5 7 9 9 10 9 8 10 10 7 5 5 5 5 5 5 6 4 10 7 5 4 5 4 3 4 4 3
6 7 6 5 5 6 7 10 9 8 6 8 5 7 5 6 5 5 6 6 6 5 6 6 6 7 7 8 9 8 8 9 8 7 5 5 8 9 9 9 8 8 9 8 4 2 3 4 5 5 6 6 6 4 4 4 4 4 4 4 4 5
7 7 7 6 6 6 7 6 8 8 7 7 7 6 6 5 5 5 5 5 5 5 6 6 6 8 6 8 7 8 8 9 8 8 6 3 4 7 10 9 10 9 7 6 4 2 1 1 2 4 4 4 3 3 4 4 4 3 4 3 4 7
7 7 6 5 5 6 5 5 6 6 5 6 6 6 6 3 4 5 5 5 4 4 6 4 7 7 6 5 5 5 1 4 5 6 6 4 3 4 9 10 12 11 5 2 2 2 1 1 1 2 2 2 2 3 4 4 3 3 3 4 3 8
6 6 6 5 5 5 5 5 5 6 5 4 5 4 5 4 5 5 5 4 5 4 5 4 5 5 5 4 4 4 5 4 4 5 6 4 4 3 5 5 6 5 4 2 1 1 1 1 1 1 2 1 2 3 3 3 3 3 3 3 4 6
6 6 6 5 5 6 6 5 5 5 6 6 5 5 4 5 5 5 4 4 4 4 4 5 5 4 4 4 4 5 4 4 5 4 4 4 3 2 2 3 3 4 4 3 1 0 0 1 1 1 1 1 2 3 3 3 3 3 3 3 4 6
6 6 6 5 5 5 5 5 5 5 5 5 5 5 6 6 5 5 5 4 4 4 4 5 5 4 5 4 5 5 5 5 5 4 3 4 3 3 3 3 3 3 4 4 3 1 1 0 1 1 1 1 1 2 2 3 3 4 3 3 3 7
6 6 6 5 5 4 4 5 5 6 5 4 5 5 5 5 5 5 6 5 5 4 4 4 5 4 4 3 3 3 3 4 4 4 3 4 4 3 3 2 3 3 4 4 3 2 1 1 0 1 1 1 1 1 2 3 3 3 3 3 3 6
7 7 6 6 6 5 4 4 5 4 4 5 4 4 4 4 4 5 5 6 5 4 5 4 5 4 3 3 3 5 4 4 3 3 3 5 4 4 3 3 3 3 3 3 3 2 1 1 1 0 0 1 1 1 1 2 3 4 4 3 4 5
8 7 7 6 5 5 6 6 4 4 5 5 4 5 3 4 3 4 4 5 5 4 5 4 4 3 3 1 4 4 4 4 6 5 6 6 5 4 4 3 2 3 2 1 2 2 2 2 2 1 1 1 2 2 1 2 3 4 4 4 4 4
6 6 6 6 6 6 6 6 6 5 4 4 4 3 2 2 2 3 3 4 3 1 1 2 4 3 4 2 5 2 3 2 4 4 4 5 4 4 3 2 3 3 3 3 2 2 2 2 2 2 1 2 2 2 3 2 3 3 4 4 4 4
6 6 6 6 5 6 6 6 6 5 5 4 3 2 3 2 2 0 3 3 2 3 4 1 3 3 3 3 4 4 2 4 5 1 3 3 3 3 3 2 3 1 0 1 1 2 2 2 2 2 2 3 2 3 4 3 4 4 4 4 4 4
6 7 7 6 5 5 4 4 5 4 4 3 3 1 1 2 2 2 2 3 3 4 4 3 3 4 4 4 7 6 4 6 5 4 4 4 5 4 4 4 4 3 3 2 3 2 2 2 3 2 2 3 3 4 4 4 4 4 4 5 4 4
6 6 5 4 4 4 3 3 3 3 2 3 3 3 2 2 2 2 1 3 2 3 3 2 2 5 6 4 3 0 2 4 5 4 3 3 3 3 4 5 4 4 4 3 3 1 2 2 2 2 3 3 4 4 4 5 5 4 3 4 4 4
5 6 5 5 4 3 3 2 2 3 3 3 3 3 2 2 2 2 3 4 1 5 4 5 2 3 2 1 3 1 1 5 4 2 2 2 4 5 6 6 5 4 3 3 2 1 0 1 1 1 2 3 5 5 4 5 4 4 4 4 4 4
7 7 5 4 4 3 3 3 2 2 2 3 3 3 3 2 1 1 1 2 1 2 3 2 3 2 3 0 1 0 3 2 3 5 5 7 7 6 6 5 4 4 4 3 3 2 1 0 1 1 1 2 3 4 5 4 4 4 4 4 4 4
9 8 6 5 4 4 4 4 3 3 2 2 3 3 2 2 1 1 2 2 3 2 2 1 1 2 4 3 2 1 3 2 2 3 6 5 5 3 4 6 5 4 3 3 3 3 3 1 1 2 2 2 3 3 5 5 4 4 3 4 4 4
5 5 5 5 4 4 4 4 4 3 3 3 3 3 3 3 2 2 2 2 3 3 3 3 3 4 4 4 3 2 2 2 3 3 5 5 7 8 6 7 6 4 3 3 2 3 3 2 2 3 3 4 5 4 4 4 3 3 4 5 5 5
4 5 5 5 5 4 4 5 4 4 3 3 3 2 2 3 3 3 3 3 3 4 3 3 4 5 5 4 3 3 2 2 3 5 3 4 4 4 5 5 5 4 5 5 4 2 2 1 1 3 4 5 5 6 4 4 4 4 4 5 6 5
4 5 5 5 5 4 3 3 4 4 4 3 3 3 3 3 3 4 3 4 4 3 3 3 3 4 5 4 4 3 4 3 3 3 4 4 3 5 6 6 5 6 6 4 3 2 3 3 2 3 5 6 6 5 6 4 4 5 4 4 5 4
5 5 6 5 5 5 5 4 3 2 3 3 3 3 3 3 4 4 3 4 4 3 3 4 4 4 4 4 5 5 4 3 3 3 3 4 4 1 2 4 5 5 6 5 3 4 3 4 3 1 4 8 7 5 4 5 5 5 5 4 3 4
5 5 5 5 5 4 3 4 4 3 3 4 5 4 4 3 3 3 3 3 3 3 4 4 4 4 4 4 6 6 6 5 4 5 5 5 5 4 4 4 4 3 2 5 4 4 5 4 4 4 2 2 3 3 1 2 4 5 5 4 4 4
5 5 4 4 4 4 2 2 2 4 4 4 2 2 3 4 4 5 3 3 3 3 3 4 4 4 4 5 5 5 4 4 4 5 7 8 7 6 5 5 4 4 4 2 2 2 5 6 4 3 1 2 2 1 0 2 1 2 3 3 3 5
7 5 5 4 4 4 5 4 5 4 3 2 4 4 4 4 4 5 5 3 3 3 4 4 5 6 5 5 5 5 5 4 5 4 6 7 6 7 6 5 4 4 5 6 3 2 1 3 3 6 3 4 2 2 2 5 1 0 1 1 3 5
8 7 5 6 5 6 7 6 5 4 4 5 4 4 4 4 3 4 4 4 4 3 5 5 5 5 6 5 5 5 5 5 5 4 5 6 6 5 5 5 5 4 3 4 5 3 3 2 3 1 1 2 2 2 3 1 2 2 2 2 1 2
7 7 7 7 6 7 6 7 6 5 4 3 4 5 5 6 5 4 4 3 4 4 5 5 5 6 6 6 5 5 5 6 5 5 6 6 6 6 6 6 5 4 4 5 4 4 4 5 5 4 4 2 1 1 1 1 0 2 1 1 1 2
8 7 6 6 7 6 7 6 8 7 6 5 5 4 2 3 5 4 4 5 5 4 5 6 5 6 6 5 5 5 6 6 6 6 5 6 7 6 6 6 5 6 5 4 3 5 4 3 2 5 5 4 3 3 2 1 2 1 3 0 1 1
7 8 7 6 7 6 8 7 7 6 4 4 5 4 5 4 3 4 5 5 5 5 4 5 6 6 6 5 5 5 6 6 7 6 6 7 7 6 6 6 6 6 6 5 6 4 4 4 2 3 4 4 4 3 3 2 2 3 3 2 1 1
8 8 7 8 7 7 6 7 7 7 6 3 2 1 3 4 5 4 6 4 4 5 5 4 5 6 6 7 6 6 7 7 7 7 7 7 7 7 7 7 6 6 6 6 5 4 4 4 4 4 3 3 3 4 2 3 4 3 2 2 3 3
10 8 7 9 7 7 7 6 7 7 7 5 3 2 3 5 5 5 6 5 5 5 5 5 4 5 7 7 7 6 7 7 7 7 6 7 8 8 7 7 7 7 7 7 6 6 6 4 4 5 4 3 3 3 3 2 3 4 3 2 4 3
11 8 7 8 8 8 7 7 7 8 8 7 5 4 4 5 4 5 6 5 5 5 4 5 5 5 6 7 6 6 6 6 6 6 7 7 7 7 7 7 7 8 8 8 6 7 7 6 5 6 6 5 4 4 3 3 3 3 4 4 5 5
11 10 8 8 8 8 7 7 7 8 9 8 8 6 7 7 7 7 7 6 4 4 5 5 5 5 6 6 6 6 6 6 6 6 7 6 6 7 6 6 6 6 7 7 7 7 7 7 6 5 6 5 4 3 3 3 3 3 4 4 4 6
13 11 10 9 9 9 8 8 8 8 8 7 7 8 7 7 7 6 6 6 6 6 5 6 6 6 6 8 7 7 7 6 6 6 6 7 7 7 6 6 6 7 7 7 6 6 7 7 7 6 5 4 4 3 3 3 3 3 3 4 4 6
12 10 9 9 9 9 10 8 8 7 7 7 7 7 6 7 6 6 6 7 8 7 7 7 7 7 7 7 6 7 7 7 7 7 7 7 6 6 6 6 6 6 6 5 6 7 7 6 6 6 4 4 4 4 3 3 2 2 3 4 4 5
9 9 9 9 8 9 8 8 7 7 6 6 7 6 6 6 6 6 6 6 6 5 6 6 7 6 7 7 6 6 7 7 7 7 7 6 5 6 6 6 6 6 5 5 5 5 5 5 5 5 5 4 3 4 3 3 3 3 2 2 3 4
11 10 10 10 9 9 8 7 7 8 8 7 5 5 5 4 4 5 6 7 7 7 6 5 4 5 6 7 7 7 7 7 7 7 6 6 6 5 5 5 5 5 5 3 5 5 4 5 5 5 4 3 3 4 3 3 2 3 3 3 3 3
9 8 9 10 9 8 7 8 9 8 8 7 7 7 6 7 7 6 5 6 6 6 5 4 5 4 6 6 7 8 7 7 7 7 7 6 6 6 5 5 5 5 4 3 3 4 3 3 4 3 3 3 3 2 2 1 1 2 2 1 2 2
Wind_Direction
135 139 143 144 141 146 141 138 142 131 155 173 202 108 284 176 106 150 160 172 164 182 171 168 165 175 167 164 153 150 160 162 167 175 168 147 142 147 145 135 131 127 120 113 104 99 92 100 94 86 79 123 162 174 179 176 169 175 182 162 173 148
137 137 136 139 143 143 142 153 156 146 172 174 171 115 191 180 175 168 155 159 175 184 181 179 166 161 184 171 167 162 160 164 172 176 180 166 144 142 141 134 120 118 120 111 91 146 111 79 65 78 94 105 172 178 167 178 180 177 177 174 178 141
140 140 138 141 145 138 141 147 152 154 152 174 160 171 180 176 176 174 178 178 180 184 190 182 171 175 181 178 171 163 167 175 175 174 175 186 154 135 134 128 116 109 105 116 141 126 102 68 79 79 106 143 166 180 166 177 189 187 184 167 189 147
143 142 144 140 144 145 132 140 137 133 155 165 160 162 151 136 182 187 185 176 176 189 190 176 179 173 155 182 163 134 181 194 186 175 170 186 190 149 129 128 117 114 115 136 143 168 158 104 73 69 90 138 157 166 177 181 203 202 194 169 180 156
148 149 149 145 144 149 145 143 143 146 143 184 155 160 170 182 187 188 194 185 183 188 185 177 174 167 185 174 168 174 186 196 214 197 175 209 202 174 184 159 137 134 131 120 134 136 235 123 89 83 80 96 144 169 185 184 204 217 203 178 163 164
157 156 155 146 152 149 157 158 159 162 168 177 171 163 182 193 194 192 195 186 182 181 177 183 176 176 173 174 178 180 189 187 209 206 188 202 205 210 188 182 162 156 146 137 132 182 236 336 120 112 96 92 136 178 201 197 199 217 216 203 156 177
162 157 156 154 156 158 159 158 164 167 169 177 180 172 186 197 192 190 189 179 205 187 187 185 182 181 186 188 191 191 189 192 198 203 193 211 208 215 221 191 184 173 156 150 148 157 202 187 23 105 124 123 122 169 203 214 206 212 219 206 158 177
163 163 158 158 159 167 156 160 171 171 169 181 187 192 189 196 186 194 191 184 193 194 194 190 189 191 185 185 207 205 200 188 195 195 181 212 213 220 228 219 191 173 182 151 150 167 197 221 146 30 119 163 146 155 207 224 220 220 218 211 202 182
168 166 161 162 166 165 163 178 181 173 161 188 186 205 196 186 196 193 198 195 193 192 198 197 190 189 174 185 201 203 195 203 219 200 188 203 209 207 219 223 190 194 188 161 145 153 205 221 267 225 273 200 214 169 198 224 227 223 225 221 217 183
174 169 163 163 169 172 171 174 175 170 192 186 181 202 190 197 200 204 205 207 203 202 204 200 191 186 183 184 242 204 202 193 204 205 193 207 196 190 206 199 189 187 172 208 171 150 202 214 233 251 249 257 228 234 192 226 226 229 225 224 220 206
175 169 161 165 170 172 172 174 174 170 181 188 184 187 175 185 229 219 227 222 219 218 88 42 359 1 48 21 248 242 240 221 215 223 226 218 202 201 200 220 203 191 176 209 202 149 202 220 245 239 230 248 245 251 242 230 241 240 240 232 227 221
178 174 168 165 166 170 177 180 175 180 185 170 156 160 157 155 167 109 31 28 40 59 86 53 71 84 85 235 276 250 226 252 219 229 252 231 215 204 223 215 232 183 129 223 246 184 193 229 238 247 247 248 238 243 238 235 240 234 244 245 238 224
180 177 177 169 167 176 176 169 165 179 169 143 114 70 126 137 88 62 49 52 68 66 67 100 114 91 117 210 219 212 179 224 226 212 226 222 220 214 219 219 217 198 191 204 229 216 190 212 229 229 247 246 243 240 240 238 232 233 237 239 240 235
177 173 170 167 175 185 164 148 162 172 139 134 141 165 199 198 218 229 322 348 356 44 26 61 68 123 155 189 271 9 175 231 243 224 221 251 216 218 217 212 212 203 190 201 204 203 226 213 215 230 233 249 252 251 241 242 235 230 225 236 236 230
170 164 162 167 170 174 155 145 147 147 136 143 144 151 149 177 212 231 228 209 152 121 142 91 96 101 115 187 254 282 212 223 235 251 232 218 207 216 212 205 197 193 160 172 189 199 291 305 317 279 284 286 258 256 236 243 232 230 222 220 225 229
170 169 163 148 156 160 140 132 114 108 128 147 150 145 141 132 150 151 128 121 128 121 120 139 146 127 95 296 359 243 220 156 182 175 203 202 208 210 218 209 186 181 172 186 212 195 159 307 326 351 359 304 300 274 256 235 223 224 218 211 224 217
174 171 153 131 121 119 117 115 102 98 100 134 144 133 125 124 126 105 90 95 105 100 80 100 94 121 133 126 146 165 230 175 118 170 183 205 209 231 213 212 203 195 171 201 228 257 254 239 268 294 309 329 322 286 261 248 225 210 182 211 218 219
157 139 129 129 130 125 113 110 110 108 105 114 124 142 140 136 109 77 79 85 91 88 95 90 76 78 91 129 147 179 198 117 140 159 164 185 201 209 211 211 208 202 212 205 192 230 251 259 264 281 299 321 329 306 278 265 246 198 213 216 211 221
144 133 125 121 116 105 103 96 99 110 108 109 123 121 123 110 89 92 78 89 91 90 88 76 79 80 92 104 121 143 139 150 166 156 159 166 168 177 213 226 223 222 218 219 218 197 214 214 306 308 304 300 309 312 287 265 261 231 215 227 233 222
156 140 129 124 129 123 123 129 122 117 107 105 120 122 100 91 93 88 96 103 102 104 104 95 83 90 94 98 108 121 143 180 194 189 152 157 154 186 196 194 202 220 215 205 186 159 142 140 98 303 294 297 287 293 284 254 243 249 231 217 223 217
164 162 155 147 147 146 139 124 115 120 119 132 133 121 105 93 90 93 95 94 92 89 90 91 88 95 104 111 96 91 108 126 138 159 155 136 168 144 137 167 177 205 224 213 200 171 152 141 135 226 269 273 275 252 240 238 235 235 236 233 220 224
160 175 169 159 148 148 152 156 149 145 134 142 148 150 132 110 98 96 86 80 81 80 82 82 84 98 110 108 105 106 107 110 110 99 93 96 105 108 125 123 144 136 207 220 204 192 178 142 193 204 180 290 290 278 187 227 246 234 235 226 227 228
169 175 171 156 150 144 133 90 118 140 148 124 48 39 91 103 110 104 76 76 75 73 82 85 87 96 104 100 101 102 97 92 79 86 87 82 81 77 92 112 133 148 144 120 76 103 167 195 201 155 169 106 251 347 268 220 219 257 268 265 249 248
166 181 167 166 139 99 96 92 74 100 85 94 125 117 105 114 111 111 99 84 76 71 72 78 81 98 94 84 88 94 92 82 72 63 82 82 76 78 70 68 90 120 141 136 157 110 62 204 187 152 183 215 160 142 8 253 253 324 340 247 242 245
165 175 174 163 147 131 120 104 100 93 98 97 106 128 132 126 122 113 111 96 80 71 78 78 79 82 92 86 82 86 90 86 80 70 75 80 76 65 64 71 77 86 92 124 133 112 53 22 162 58 125 140 148 200 213 154 328 209 163 167 135 192
162 167 171 167 158 149 147 138 140 144 160 162 156 164 169 159 155 147 112 107 99 81 87 83 82 88 89 93 87 87 91 94 88 79 76 82 84 80 64 61 52 76 76 51 85 92 86 39 51 38 25 338 13 334 159 138 228 219 133 65 118 66
168 169 169 168 171 154 148 155 160 169 178 181 177 176 122 138 145 129 127 119 107 97 96 101 93 94 94 90 91 87 87 85 84 81 77 77 72 66 66 55 51 55 44 44 65 96 79 71 73 43 30 36 50 42 315 273 241 321 276 102 176 281
174 172 170 168 181 173 159 161 158 164 182 198 195 170 159 154 134 140 137 131 124 113 105 107 111 107 107 105 100 95 95 93 88 83 82 79 78 73 71 64 60 63 56 46 43 59 73 50 50 57 27 38 35 15 0 337 9 299 284 286 280 146
179 177 170 174 177 182 173 164 165 168 181 205 211 109 135 143 150 152 144 139 136 125 117 108 106 109 111 113 110 110 106 102 98 94 90 89 85 81 75 70 65 62 61 59 52 49 62 56 47 38 15 32 15 19 9 47 26 13 326 287 261 303
189 188 173 174 182 178 180 170 171 175 184 176 183 151 156 147 155 165 156 156 147 144 139 131 121 118 117 116 115 114 109 106 105 98 91 94 97 92 87 82 77 75 75 74 62 55 55 58 59 52 42 23 11 354 335 327 6 357 305 279 300 303
191 187 177 177 180 179 180 184 184 180 183 177 173 170 165 154 157 169 169 168 166 153 151 144 138 136 131 128 122 116 110 106 102 103 103 103 97 96 96 95 92 86 81 81 78 74 67 55 55 53 46 42 39 34 20 359 350 341 328 301 295 278
191 189 179 182 182 181 181 190 197 182 184 183 173 179 184 178 175 175 174 171 170 159 157 150 154 148 150 145 134 126 121 118 111 108 104 105 106 105 102 99 95 91 88 85 84 81 74 67 59 63 54 47 53 44 38 26 5 327 321 311 307 296
194 187 185 184 187 183 185 189 193 193 190 178 182 187 188 187 178 180 173 169 171 180 165 167 169 164 160 157 144 139 140 131 123 115 116 112 111 109 106 101 98 95 90 85 82 83 80 74 66 57 54 54 48 52 56 38 17 346 321 308 295 293
197 185 184 186 190 188 194 192 189 195 192 179 188 190 194 191 184 187 175 175 181 184 181 182 171 174 165 163 158 149 142 132 126 126 123 120 117 114 113 108 109 104 100 96 95 92 90 86 79 72 59 60 51 52 43 36 23 359 350 321 301 303
200 191 191 192 194 198 196 193 191 196 197 197 192 190 197 195 183 186 183 180 186 183 188 184 178 168 158 163 157 149 142 136 134 131 130 128 122 117 114 111 109 112 109 107 105 102 97 91 83 78 69 59 65 55 39 26 13 9 0 358 324 314
201 194 195 196 201 202 201 194 192 193 199 204 209 197 194 185 193 195 185 188 184 185 193 181 171 160 165 161 155 152 147 140 138 136 137 134 131 119 115 110 109 112 114 125 116 112 108 105 96 96 92 83 67 59 44 33 11 21 358 345 327 307
206 207 200 202 202 201 204 199 199 198 196 200 209 210 204 195 194 193 195 195 187 188 179 176 168 173 162 161 155 155 150 144 144 141 142 143 132 123 118 108 106 108 104 109 100 95 87 78 86 86 86 85 56 62 56 33 32 15 8 334 321 302